Location: Laura�t
(43.9341°N, 0.2497°E)
Time: 00:33:31
(UTC+00:00)

GP-B - Pass Details

Date: 03 March 2021
Orbit: 631 x 635 km, 89.8° (Epoch: 17 April)

Event Time Altitude Azimuth Distance (km) Brightness Sun altitude
Rises 19:20:49 0° 179° (S) 2,915 6.4 -17.1°
Reaches altitude 10° 19:23:02 10° 180° (S) 2,012 5.6 -17.5°
Maximum altitude 19:27:27 82° 267° (W) 647 3.1 -18.3°
Drops below altitude 10° 19:31:56 10° 356° (N) 2,030 5.9 -19.1°
Sets 19:34:10 0° 358° (N) 2,944 6.7 -19.5°
